Regional Weather Roundup
Issued by NWS

Home | Current Version | Previous Version | Text Only | Print | Product List | Glossary Off
Versions: 1 2 3 4 5 6 7 8 9 10 11 12 13 14 15 16 17 18 19 20 21 22 23 24 25 26 27 28 29 30 31 32 33 34 35 36 37 38 39 40 41 42 43 44 45 46 47 48 49 50

093
ASUS43 KOAX 292102
RWRNE

WEATHER ROUNDUP FOR NEBRASKA
NATIONAL WEATHER SERVICE OMAHA NE
400 PM CDT FRI APR 29 2016

NOTES: SATELLITE DATA IS BEING USED TO AUGMENT CLOUD COVER ABOVE
       12000 FEET.
       "FAIR" INDICATES FEW OR NO CLOUDS BELOW 12,000 FEET WITH NO
       SIGNIFICANT WEATHER AND/OR OBSTRUCTIONS TO VISIBILITY.

  * THESE STATIONS DO NOT REPORT WEATHER SUCH AS RAIN...SNOW OR FOG.

NEZ001>004-019>022-054>056-292200-
NEBRASKA PANHANDLE

CITY           SKY/WX    TMP DP  RH WIND       PRES   REMARKS
SCOTTSBLUFF    LGT RAIN  43  35  73 NE16      29.97S
ALLIANCE       CLOUDY    40  35  83 NE15      29.97F WCI  32
CHADRON        CLOUDY    43  36  76 NE10      30.01F
KIMBALL        LGT SNOW  33  33  99 E3        29.96F VSB 3/4
$$

NEZ057>060-069>072-079>082-292200-
SOUTHWEST NEBRASKA

CITY           SKY/WX    TMP DP  RH WIND       PRES   REMARKS
NORTH PLATTE   CLOUDY    43  37  79 E17       29.92F
IMPERIAL       LGT RAIN  40  37  89 NE15      29.92F WCI  32
LEXINGTON      CLOUDY    44  38  81 NE21G28   29.91F
MCCOOK         CLOUDY    43  38  82 E18       29.90S
$$

NEZ005>010-023>029-035>040-094-292200-
NORTH CENTRAL NEBRASKA

CITY           SKY/WX    TMP DP  RH WIND       PRES   REMARKS
VALENTINE      CLOUDY    41  37  86 E12       30.04F
AINSWORTH      CLOUDY    42  39  87 NE12      30.03F
BROKEN BOW     CLOUDY    43  39  86 NE12      29.97F
ORD            CLOUDY    45  39  79 NE13      29.99F
$$

NEZ041-046>049-061>064-073>077-083>087-292200-
SOUTH CENTRAL NEBRASKA

CITY           SKY/WX    TMP DP  RH WIND       PRES   REMARKS
GRAND ISLAND   CLOUDY    44  39  82 NE17      30.02F
AURORA         CLOUDY    45  41  86 E15G23    30.01F
HASTINGS       CLOUDY    44  40  85 E14       29.99F
KEARNEY *      CLOUDY    45  37  76 E17       29.98F
YORK           CLOUDY    45  41  87 E15       30.03F
$$

NEZ011>018-030>034-042>045-292200-
NORTHEAST NEBRASKA

CITY           SKY/WX    TMP DP  RH WIND       PRES   REMARKS
NORFOLK        CLOUDY    45  38  76 E10       30.04F
ALBION         CLOUDY    45  38  77 NE10      30.03F
BLAIR          CLOUDY    47  42  84 NE12      30.04F
COLUMBUS *     CLOUDY    45  36  70 NE14      30.05F
FREMONT        CLOUDY    46  40  81 NE9       30.06S
TEKAMAH        CLOUDY    48  42  80 NE12      30.07F
$$

NEZ050>053-065>068-078-088>093-292200-
SOUTHEAST NEBRASKA

CITY           SKY/WX    TMP DP  RH WIND       PRES   REMARKS
LINCOLN        CLOUDY    48  40  73 E12       30.05S
OMAHA EPPLEY   CLOUDY    49  42  77 NE10      30.04F
BEATRICE       CLOUDY    48  42  80 E8        30.03R
FALLS CITY     CLOUDY    53  46  77 NE10      29.98F
NEBRASKA CITY  CLOUDY    49  44  80 NE9       30.01F
$$

NEZ044-045-051>053-067-292200-
OMAHA AREA

CITY           SKY/WX    TMP DP  RH WIND       PRES   REMARKS
OMAHA EPPLEY   CLOUDY    49  42  77 NE10      30.04F
BLAIR          CLOUDY    47  42  84 NE12      30.04F
FREMONT        CLOUDY    46  40  81 NE9       30.06S
OFFUTT AFB     CLOUDY    48  44  84 NE9       30.03F
WAHOO          CLOUDY    46  41  83 NE12      30.05S
$$




USA.gov is the U.S. government's official web portal to all federal, state and local government web resources and services.